Regional Weather Roundup
Issued by NWS Sterling, VA

Home | Current Version | Previous Version | Text Only | Print | Product List | Glossary On
Versions: 1 2 3 4 5 6 7 8 9 10 11 12 13 14 15 16 17 18 19 20 21 22 23 24 25 26 27 28 29 30 31 32 33 34 35 36 37 38 39 40 41 42 43 44 45 46 47 48 49 50
485
ASUS41 KLWX 090410
RWRLWX

REGIONAL WEATHER ROUNDUP
NATIONAL WEATHER SERVICE BALTIMORE MD/WASHINGTON DC
1100 PM EST MON FEB 08 2016

Note: "FAIR" indicates few or no clouds below 12,000 feet
with no significant weather and/or obstructions to visibility.
 TC=TEMPERATURE CELSIUS

 * =Non NWS site. Station does not report precipitation (e.g. rain,
    snow, etc.), thunder, or fog.

DCZ001-MDZ009-015-VAZ040>042-051-053>054-090500-
WASHINGTON METRO

CITY           SKY/WX    TMP DP  RH WIND       PRES   REMARKS
WASHINGTON NAT LGT RAIN  39  34  82 SE7       29.68F
DULLES         CLOUDY    38  32  79 SE12      29.65F
ANDREWS AFB    CLOUDY    37  34  89 SE7       29.65F
FT BELVOIR     CLOUDY    39  34  84 SE7       29.67F
QUANTICO       CLOUDY    39  35  86 S8        29.69F
COLLEGE PARK*  CLOUDY    37  36  93 CALM      29.67F
LEESBURG*      DRIZZLE   39  36  87 SE3       29.66F
MANASSAS*      CLOUDY    37  34  87 SE10      29.66F
GAITHERSBURG*  CLOUDY    36  30  80 SE8       29.69F

$$

MDZ006>007-011-014-090500-
BALTIMORE METRO

CITY           SKY/WX    TMP DP  RH WIND       PRES   REMARKS
BWI AIRPORT    LGT RAIN  37  34  89 SE10      29.68F
MD SCIENCE CTR   N/A     39  34  82 MISG      29.68F
MARTIN STATE   LGT RAIN  37  36  93 E9        29.71F
ANNAPOLIS      LGT RAIN  38  35  89 SE13      29.69F
FORT MEADE*    CLOUDY    36  34  93 SE8       29.70F

$$

MDZ012-015-019>023-090500-
MARYLAND EASTERN SHORE

CITY           SKY/WX    TMP DP  RH WIND       PRES   REMARKS
OCEAN CITY     MOCLDY    39  34  82 E9        29.71F
SALISBURY      CLOUDY    35  34  96 E5        29.69F
BAY BRIDGE AP* LGT RAIN  36  36 100 E5        29.70F
CAMBRIDGE*     CLOUDY    34  32  93 E6        29.69F
EASTON*        CLOUDY    37  37 100 SE7       29.74S

$$

MDZ017>025-090500-
SOUTHERN MARYLAND

CITY           SKY/WX    TMP DP  RH WIND       PRES   REMARKS
PATUXENT RIVER CLOUDY    39  34  82 SE8       29.68F
ST INIGOES     CLOUDY    39  35  86 E7        29.67F
LEONARDTOWN*   CLOUDY    37  34  87 E6        29.69F

$$

MDZ003>005-090500-
NORTH CENTRAL MARYLAND

CITY           SKY/WX    TMP DP  RH WIND       PRES   REMARKS
FREDERICK*     DRIZZLE   37  34  87 CALM      29.68F
HAGERSTOWN APT CLOUDY    38  30  73 S8        29.63F
WESTMINSTER*   DRIZZLE   36  34  93 SE9       29.64F WCI  29

$$

MDZ501>502-090500-
WESTERN MARYLAND

CITY           SKY/WX    TMP DP  RH WIND       PRES   REMARKS
OAKLAND*       CLOUDY    28  27  93 SW3       29.53F
CUMBERLAND*    CLOUDY    34  34 100 CALM        N/A

$$

VAZ025>031-090500-
SHENANDOAH VALLEY

CITY           SKY/WX    TMP DP  RH WIND       PRES   REMARKS
WINCHESTER*    CLOUDY    37  32  81 S6        29.62F
FRONT ROYAL*   CLOUDY    36  32  87 CALM      29.61F
LURAY*         CLOUDY    36  34  93 CALM      29.61F
NEW MARKET*    CLOUDY    34  33  96 CALM      29.60F
STAUNTON*      FAIR      37  35  91 CALM      29.61F
WAYNESBORO*    CLOUDY    34  32  92 SW3       29.59F

$$

WVZ021-048>050-054>055-090500-
EASTERN WEST VIRGINIA PANHANDLE

CITY           SKY/WX    TMP DP  RH WIND       PRES   REMARKS
MARTINSBURG    CLOUDY    36  32  85 SE3       29.62F
PETERSBURG*    CLOUDY    34  33  96 CALM      29.61F

$$

VAZ036>039-050-090500-
CENTRAL FOOTHILLS

CITY           SKY/WX    TMP DP  RH WIND       PRES   REMARKS
CHARLOTTESVILL CLOUDY    38  35  89 NE3       29.63F
CULPEPER*      RAIN      38  34  86 CALM      29.66S
ORANGE*        RAIN      37  36  93 CALM      29.66F
GORDONSVILLE*  CLOUDY    36  35  98 CALM      29.63F FOG
WARRENTON*     DRIZZLE   39  35  86 SE5       29.64F

$$

VAZ055>057-090500-
NORTH AND CENTRAL PIEDMONT

CITY           SKY/WX    TMP DP  RH WIND       PRES   REMARKS
FREDERICKSBRG* LGT RAIN  38  37  97 SE3       29.66F
STAFFORD*      LGT RAIN  37  35  91 SE3       29.70F

$$

NCZ024-NYZ072-PAZ021-071-VAZ022-071-090500-
OTHER REGIONAL OBSERVATIONS

CITY           SKY/WX    TMP DP  RH WIND       PRES   REMARKS
NEW YORK CITY  CLOUDY    29  22  75 NE8       29.79F WCI  21
PHILADELPHIA   LGT SNOW  32  28  85 E7        29.74F FOG
PITTSBURGH     CLOUDY    33  30  88 W5        29.58F
ROANOKE        FAIR      33  25  72 W6        29.65S
RICHMOND       CLOUDY    38  35  89 E6        29.64F
RALEIGH        PTCLDY    38  36  92 CALM      29.65F

$$

ANZ530>537-090500-
MARINE OBSERVATIONS

STATION/POSITION TIME  TEMP    WIND        PRES
                       AIR SEA DIR/SP/G
                 (UTC) (F)     (DEG/KT/KT) (MB)
THOMAS PT LIGHT  NOT AVBL
BALT KEY BRIDGE  0300   39     150/ 12/ 14 1005.8F
COVE POINT       0300   38     160/ 11/ 14 1006.4F
LEWISETTA        0300   40 41  130/ 12/ 13 1004.9F
SOLOMONS ISLAND  0300   39 41  130/ 12/ 13   N/A
PINEY POINT      0300          140/ 14/ 16   N/A

$$





USA.gov is the U.S. government's official web portal to all federal, state and local government web resources and services.